When you browse on this site, cookies collect data to enhance your experience and personalize the content and advertising you see.
Visit our Privacy Policy to learn more. By continuing to use the site, you agree to this use of cookies and data.
  • In Portugal
  • List of Countries
  • For 7 days
  • Water Temperature
  • Weather Map
  • Weather Widgets
  • user-avatar
    Login

    Hourly Weather Solodilovo

    Today, 28 May, Thursday

    Time Temperature Precipitation Wind Pressure Humidity
    00:00 +10°C° 0 mm 2 mps 754 mmHg 91%
    01:00 +10°C° 0 mm 2 mps 754 mmHg 92%
    02:00 +9°C° 0 mm 3 mps 754 mmHg 92%
    03:00 +10°C° 0 mm 2 mps 754 mmHg 91%
    04:00 +10°C° 0 mm 2 mps 754 mmHg 90%
    05:00 +12°C° 0 mm 2 mps 753 mmHg 89%
    06:00 +13°C° 0 mm 2 mps 754 mmHg 83%
    07:00 +15°C° 0 mm 2 mps 754 mmHg 76%
    08:00 +17°C° 0 mm 2 mps 754 mmHg 69%
    09:00 +18°C° 0.1 mm 2 mps 754 mmHg 63%
    10:00 +19°C° 0.1 mm 2 mps 754 mmHg 57%
    11:00 +20°C° 0.1 mm 2 mps 753 mmHg 51%
    12:00 +21°C° 0.1 mm 2 mps 753 mmHg 51%
    13:00 +21°C° 0.1 mm 3 mps 753 mmHg 51%
    14:00 +21°C° 0 mm 3 mps 753 mmHg 50%
    15:00 +20°C° 0.1 mm 2 mps 753 mmHg 54%
    16:00 +20°C° 0.1 mm 2 mps 753 mmHg 58%
    17:00 +20°C° 0.1 mm 2 mps 752 mmHg 62%
    18:00 +18°C° 0 mm 2 mps 752 mmHg 68%
    19:00 +16°C° 0 mm 1 mps 752 mmHg 74%
    20:00 +14°C° 0 mm 1 mps 752 mmHg 80%
    21:00 +14°C° 0 mm 1 mps 752 mmHg 82%
    22:00 +13°C° 0 mm 1 mps 752 mmHg 84%
    23:00 +12°C° 0 mm 1 mps 752 mmHg 86%

    Tomorrow, 29 May, Friday

    Time Temperature Precipitation Wind Pressure Humidity
    00:00 +12°C° 0 mm 1 mps 752 mmHg 86%
    01:00 +12°C° 0 mm 1 mps 752 mmHg 87%
    02:00 +11°C° 0 mm 1 mps 752 mmHg 87%
    03:00 +12°C° 0.1 mm 1 mps 752 mmHg 87%
    04:00 +12°C° 0.1 mm 1 mps 751 mmHg 87%
    05:00 +13°C° 0.1 mm 1 mps 751 mmHg 88%
    06:00 +13°C° 0.5 mm 2 mps 751 mmHg 89%
    07:00 +13°C° 0.5 mm 2 mps 751 mmHg 91%
    08:00 +12°C° 0.5 mm 3 mps 751 mmHg 92%
    09:00 +12°C° 1.8 mm 3 mps 750 mmHg 93%
    10:00 +12°C° 1.8 mm 4 mps 750 mmHg 94%
    11:00 +12°C° 1.8 mm 5 mps 750 mmHg 95%
    12:00 +12°C° 0.5 mm 4 mps 750 mmHg 95%
    13:00 +12°C° 0.5 mm 4 mps 750 mmHg 95%
    14:00 +12°C° 0.5 mm 4 mps 750 mmHg 96%
    15:00 +13°C° 0.1 mm 3 mps 750 mmHg 95%
    16:00 +13°C° 0.1 mm 3 mps 750 mmHg 94%
    17:00 +13°C° 0.1 mm 3 mps 749 mmHg 93%
    18:00 +13°C° 0 mm 3 mps 749 mmHg 94%
    19:00 +13°C° 0 mm 3 mps 749 mmHg 95%
    20:00 +13°C° 0 mm 3 mps 749 mmHg 96%
    21:00 +13°C° 0.1 mm 3 mps 749 mmHg 96%
    22:00 +13°C° 0.1 mm 3 mps 749 mmHg 96%
    23:00 +12°C° 0.1 mm 3 mps 749 mmHg 96%

    Day after tomorrow, 30 May, Saturday

    Time Temperature Precipitation Wind Pressure Humidity
    00:00 +12°C° 0 mm 4 mps 749 mmHg 97%
    01:00 +12°C° 0 mm 4 mps 749 mmHg 97%
    02:00 +12°C° 0 mm 4 mps 749 mmHg 97%
    03:00 +12°C° 0 mm 4 mps 749 mmHg 97%
    04:00 +12°C° 0 mm 4 mps 749 mmHg 97%
    05:00 +12°C° 0 mm 4 mps 749 mmHg 96%
    06:00 +13°C° 0.1 mm 4 mps 749 mmHg 96%
    07:00 +13°C° 0.1 mm 5 mps 749 mmHg 95%
    08:00 +13°C° 0.1 mm 5 mps 749 mmHg 95%
    09:00 +13°C° 0.4 mm 5 mps 749 mmHg 94%
    10:00 +14°C° 0.4 mm 5 mps 749 mmHg 93%
    11:00 +14°C° 0.4 mm 6 mps 749 mmHg 92%
    12:00 +15°C° 0.1 mm 6 mps 749 mmHg 90%
    13:00 +15°C° 0.1 mm 6 mps 749 mmHg 87%
    14:00 +16°C° 0.1 mm 7 mps 749 mmHg 85%
    15:00 +16°C° 0 mm 7 mps 748 mmHg 84%
    16:00 +15°C° 0 mm 6 mps 748 mmHg 83%
    17:00 +15°C° 0 mm 6 mps 748 mmHg 82%
    18:00 +15°C° 0 mm 6 mps 748 mmHg 82%
    19:00 +15°C° 0 mm 6 mps 748 mmHg 81%
    20:00 +15°C° 0 mm 6 mps 748 mmHg 80%
    21:00 +14°C° 0 mm 6 mps 748 mmHg 79%
    22:00 +14°C° 0 mm 6 mps 748 mmHg 79%
    23:00 +14°C° 0 mm 6 mps 748 mmHg 79%

    31 May, Sunday

    Time Temperature Precipitation Wind Pressure Humidity
    00:00 +12°C° 0 mm 7 mps 748 mmHg 76%
    01:00 +12°C° 0 mm 7 mps 748 mmHg 74%
    02:00 +12°C° 0 mm 7 mps 748 mmHg 71%
    03:00 +11°C° 0 mm 7 mps 748 mmHg 70%
    04:00 +11°C° 0 mm 7 mps 748 mmHg 68%
    05:00 +11°C° 0 mm 7 mps 748 mmHg 67%
    06:00 +12°C° 0 mm 7 mps 749 mmHg 63%
    07:00 +14°C° 0 mm 7 mps 749 mmHg 60%
    08:00 +15°C° 0 mm 8 mps 749 mmHg 56%
    09:00 +16°C° 0 mm 7 mps 749 mmHg 53%
    10:00 +17°C° 0 mm 7 mps 750 mmHg 50%
    11:00 +18°C° 0 mm 7 mps 750 mmHg 47%
    12:00 +18°C° 0 mm 7 mps 750 mmHg 47%
    13:00 +18°C° 0 mm 7 mps 750 mmHg 48%
    14:00 +18°C° 0 mm 7 mps 750 mmHg 48%
    15:00 +19°C° 0 mm 6 mps 750 mmHg 51%
    16:00 +17°C° 0 mm 6 mps 750 mmHg 55%
    17:00 +17°C° 0 mm 5 mps 751 mmHg 58%
    18:00 +15°C° 0 mm 5 mps 751 mmHg 62%
    19:00 +13°C° 0 mm 4 mps 751 mmHg 66%
    20:00 +12°C° 0 mm 4 mps 752 mmHg 70%
    21:00 +11°C° 0 mm 3 mps 752 mmHg 71%
    22:00 +9°C° 0 mm 3 mps 753 mmHg 71%
    23:00 +8°C° 0 mm 3 mps 753 mmHg 71%

    1 June, Monday

    Time Temperature Precipitation Wind Pressure Humidity
    00:00 +7°C° 0 mm 3 mps 753 mmHg 75%
    01:00 +6°C° 0 mm 2 mps 753 mmHg 78%
    02:00 +5°C° 0 mm 2 mps 753 mmHg 81%
    03:00 +6°C° 0 mm 2 mps 754 mmHg 79%
    04:00 +6°C° 0 mm 2 mps 754 mmHg 77%
    05:00 +7°C° 0 mm 2 mps 754 mmHg 76%
    06:00 +8°C° 0 mm 2 mps 754 mmHg 71%
    07:00 +9°C° 0 mm 2 mps 754 mmHg 66%
    08:00 +10°C° 0 mm 3 mps 754 mmHg 62%
    09:00 +11°C° 0 mm 3 mps 754 mmHg 59%
    10:00 +13°C° 0 mm 3 mps 754 mmHg 56%
    11:00 +14°C° 0 mm 3 mps 754 mmHg 54%
    12:00 +14°C° 0 mm 3 mps 753 mmHg 54%
    13:00 +14°C° 0 mm 4 mps 753 mmHg 55%
    14:00 +15°C° 0 mm 4 mps 753 mmHg 55%
    15:00 +16°C° 0 mm 3 mps 753 mmHg 58%
    16:00 +14°C° 0 mm 3 mps 752 mmHg 61%
    17:00 +14°C° 0 mm 3 mps 752 mmHg 64%
    18:00 +13°C° 0 mm 3 mps 752 mmHg 70%
    19:00 +12°C° 0 mm 3 mps 752 mmHg 77%
    20:00 +12°C° 0 mm 2 mps 752 mmHg 83%
    21:00 +10°C° 0 mm 2 mps 752 mmHg 87%
    22:00 +9°C° 0 mm 2 mps 751 mmHg 91%
    23:00 +8°C° 0 mm 2 mps 751 mmHg 95%

    2 June, Tuesday

    Time Temperature Precipitation Wind Pressure Humidity
    00:00 +9°C° 0.1 mm 1 mps 751 mmHg 96%
    01:00 +9°C° 0.1 mm 1 mps 751 mmHg 97%
    02:00 +9°C° 0.1 mm 1 mps 751 mmHg 98%
    03:00 +9°C° 0.1 mm 1 mps 751 mmHg 97%
    04:00 +9°C° 0.1 mm 2 mps 751 mmHg 97%
    05:00 +9°C° 0.1 mm 2 mps 751 mmHg 96%
    06:00 +10°C° 0.2 mm 2 mps 751 mmHg 90%
    07:00 +11°C° 0.2 mm 3 mps 751 mmHg 85%
    08:00 +12°C° 0.2 mm 3 mps 751 mmHg 79%
    09:00 +13°C° 0.2 mm 3 mps 751 mmHg 73%
    10:00 +14°C° 0.2 mm 3 mps 751 mmHg 68%
    11:00 +16°C° 0.2 mm 3 mps 751 mmHg 62%
    12:00 +16°C° 0.1 mm 3 mps 751 mmHg 60%
    13:00 +17°C° 0.1 mm 3 mps 750 mmHg 57%
    14:00 +17°C° 0.1 mm 3 mps 750 mmHg 55%
    15:00 +17°C° 0.1 mm 3 mps 750 mmHg 54%
    16:00 +17°C° 0.1 mm 3 mps 750 mmHg 54%
    17:00 +17°C° 0.1 mm 3 mps 750 mmHg 54%
    18:00 +14°C° 0 mm 3 mps 750 mmHg 61%
    19:00 +13°C° 0 mm 2 mps 750 mmHg 67%
    20:00 +10°C° 0 mm 2 mps 750 mmHg 73%
    21:00 +10°C° 0 mm 1 mps 750 mmHg 74%
    22:00 +9°C° 0 mm 1 mps 751 mmHg 75%
    23:00 +7°C° 0 mm 0 mps 751 mmHg 76%
    Show more